Weather History for Watertown, WI

Change the Weather History Date:

Tuesday, October 22, 2013

  Actual Average Record
Temperature  
Mean Temperature 34 °F -  
Max Temperature 44 °F 57 °F 83 °F (1947)
Min Temperature 24 °F 38 °F 24 °F (1930)
Degree Days  
Heating Degree Days 31    
Moisture  
Dew Point 26 °F    
Average Humidity 69    
Maximum Humidity 89    
Minimum Humidity 49    
Precipitation  
Precipitation 0.00 in - - ()
Sea Level Pressure  
Sea Level Pressure 29.92 in    
Wind  
Wind Speed 5 mph (West)    
Max Wind Speed 8 mph    
Max Gust Speed -    
Visibility 10 miles    
Events      
Averages and records for this station are not official NWS values.
T = Trace of Precipitation, MM = Missing Value Source: NWS Daily Summary

Daily Weather History Graph

Daily Weather History Graph

Search for Another Location

Airport:

Trip Planner

Search our weather history database for the weather conditions in past years. The results will help you decide how hot, cold, wet, or windy it might be!

Date:

Astronomy

Oct. 22, 2013 Rise Set
Actual Time 7:17 AM CDT 6:00 PM CDT
Civil Twilight 6:48 AM CDT 6:29 PM CDT
Nautical Twilight 6:15 AM CDT 7:02 PM CDT
Astronomical Twilight 5:42 AM CDT 7:35 PM CDT
Moon 8:36 PM CDT (10/22) 10:49 AM CDT (10/22)
Length of Visible Light 11h 41m
Length of Day
10h 43m
Waning Gibbous, 86% of the Moon is Illuminated
Oct 22
Waning Gibbous
Oct 26
Last Quarter
Nov 3
New
Nov 9
First Quarter
Nov 17
Full

Hourly Weather History & Observations

Time (CDT) Temp. Windchill Dew Point Humidity Pressure Visibility Wind Dir Wind Speed Gust Speed Precip Events Conditions
12:15 AM 30.9 °F 26.2 °F 23.4 °F 74% 29.92 in 10.0 mi WSW 4.6 mph - N/A   Clear
12:35 AM 30.2 °F 24.3 °F 23.0 °F 75% 29.92 in 10.0 mi WSW 5.8 mph - N/A   Clear
12:55 AM 29.3 °F 24.3 °F 23.2 °F 78% 29.92 in 10.0 mi SW 4.6 mph - N/A   Clear
1:15 AM 29.8 °F 24.9 °F 23.0 °F 76% 29.92 in 10.0 mi WSW 4.6 mph - N/A   Clear
1:35 AM 30.2 °F 24.3 °F 23.0 °F 75% 29.92 in 10.0 mi WSW 5.8 mph - N/A   Clear
1:55 AM 30.4 °F 23.6 °F 22.6 °F 73% 29.93 in 10.0 mi WSW 6.9 mph - N/A   Clear
2:15 AM 30.6 °F 23.8 °F 22.6 °F 72% 29.93 in 10.0 mi West 6.9 mph - N/A   Clear
2:35 AM 30.2 °F 24.3 °F 22.8 °F 74% 29.92 in 10.0 mi West 5.8 mph - N/A   Clear
2:55 AM 30.0 °F 24.1 °F 22.8 °F 75% 29.92 in 10.0 mi WSW 5.8 mph - N/A   Clear
3:15 AM 30.2 °F 24.3 °F 22.8 °F 74% 29.92 in 10.0 mi West 5.8 mph - N/A   Clear
3:35 AM 29.3 °F 23.2 °F 22.8 °F 77% 29.93 in 10.0 mi WSW 5.8 mph - N/A   Clear
3:55 AM 29.3 °F 24.3 °F 22.8 °F 77% 29.93 in 10.0 mi WSW 4.6 mph - N/A   Clear
4:15 AM 28.6 °F 22.4 °F 22.8 °F 79% 29.93 in 10.0 mi WSW 5.8 mph - N/A   Clear
4:35 AM 28.4 °F 22.2 °F 22.8 °F 80% 29.93 in 10.0 mi SW 5.8 mph - N/A   Clear
4:55 AM 27.5 °F 21.1 °F 23.0 °F 83% 29.93 in 10.0 mi SW 5.8 mph - N/A   Clear
5:15 AM 28.0 °F 24.2 °F 23.0 °F 81% 29.94 in 10.0 mi WSW 3.5 mph - N/A   Clear
5:35 AM 28.0 °F 22.8 °F 23.0 °F 81% 29.94 in 10.0 mi WSW 4.6 mph - N/A   Clear
5:55 AM 27.1 °F 21.8 °F 22.6 °F 83% 29.94 in 10.0 mi SW 4.6 mph - N/A   Clear
6:15 AM 26.8 °F 21.4 °F 22.6 °F 84% 29.94 in 10.0 mi SW 4.6 mph - N/A   Clear
6:35 AM 26.4 °F - 23.0 °F 87% 29.94 in 10.0 mi Calm Calm - N/A   Clear
6:55 AM 26.6 °F - 23.0 °F 86% 29.93 in 10.0 mi Calm Calm - N/A   Clear
7:15 AM 24.8 °F 20.5 °F 21.9 °F 89% 29.94 in 10.0 mi SW 3.5 mph - N/A   Clear
7:35 AM 25.7 °F 20.1 °F 22.5 °F 88% 29.94 in 10.0 mi SW 4.6 mph - N/A   Clear
7:55 AM 26.2 °F 22.1 °F 23.2 °F 88% 29.94 in 10.0 mi SW 3.5 mph - N/A   Clear
8:15 AM 28.2 °F 23.1 °F 24.3 °F 85% 29.94 in 10.0 mi WSW 4.6 mph - N/A   Clear
8:35 AM 30.0 °F 23.2 °F 25.0 °F 82% 29.95 in 10.0 mi WSW 6.9 mph - N/A   Clear
8:55 AM 30.9 °F 25.2 °F 25.0 °F 79% 29.95 in 10.0 mi WSW 5.8 mph - N/A   Clear
9:15 AM 32.4 °F 26.9 °F 26.2 °F 78% 29.95 in 10.0 mi West 5.8 mph - N/A   Clear
9:35 AM 33.8 °F 27.7 °F 26.4 °F 74% 29.95 in 10.0 mi WNW 6.9 mph - N/A   Clear
9:55 AM 35.2 °F 30.3 °F 27.1 °F 72% 29.95 in 10.0 mi West 5.8 mph - N/A   Clear
10:15 AM 36.3 °F 30.8 °F 27.7 °F 71% 29.95 in 10.0 mi WNW 6.9 mph - N/A   Clear
10:35 AM 37.8 °F 33.3 °F 28.2 °F 68% 29.94 in 10.0 mi NW 5.8 mph - N/A   Clear
10:55 AM 38.3 °F 34.8 °F 28.4 °F 68% 29.94 in 10.0 mi NNW 4.6 mph - N/A   Clear
11:15 AM 38.8 °F 34.6 °F 28.8 °F 67% 29.94 in 10.0 mi WNW 5.8 mph - N/A   Clear
11:35 AM 39.7 °F 35.6 °F 28.8 °F 65% 29.93 in 10.0 mi NNW 5.8 mph - N/A   Clear
11:55 AM 39.4 °F 36.1 °F 28.0 °F 64% 29.93 in 10.0 mi NW 4.6 mph - N/A   Clear
12:15 PM 40.8 °F 37.8 °F 29.3 °F 64% 29.92 in 10.0 mi North 4.6 mph - N/A   Clear
12:35 PM 40.6 °F 37.5 °F 28.6 °F 62% 29.92 in 10.0 mi WNW 4.6 mph - N/A   Clear
12:55 PM 41.2 °F 37.3 °F 29.3 °F 63% 29.91 in 10.0 mi NW 5.8 mph - N/A   Clear
1:15 PM 42.4 °F 38.1 °F 29.7 °F 61% 29.90 in 10.0 mi NW 6.9 mph - N/A   Clear
1:35 PM 41.4 °F 36.2 °F 28.2 °F 60% 29.90 in 10.0 mi WNW 8.1 mph - N/A   Clear
1:55 PM 42.6 °F 39.0 °F 28.6 °F 58% 29.90 in 10.0 mi West 5.8 mph - N/A   Clear
2:15 PM 43.0 °F 39.5 °F 28.4 °F 56% 29.89 in 10.0 mi WNW 5.8 mph - N/A   Clear
2:35 PM 43.2 °F 39.7 °F 29.3 °F 58% 29.89 in 10.0 mi NW 5.8 mph - N/A   Clear
2:55 PM 43.7 °F 39.7 °F 29.5 °F 57% 29.89 in 10.0 mi West 6.9 mph - N/A   Clear
3:15 PM 43.9 °F - 28.8 °F 55% 29.89 in 10.0 mi Calm Calm - N/A   Clear
3:35 PM 43.3 °F 39.9 °F 28.9 °F 57% 29.89 in 10.0 mi NW 5.8 mph - N/A   Scattered Clouds
3:55 PM 43.5 °F 40.9 °F 29.1 °F 57% 29.89 in 10.0 mi WSW 4.6 mph - N/A   Scattered Clouds
4:15 PM 44.2 °F - 29.3 °F 56% 29.89 in 10.0 mi Calm Calm - N/A   Mostly Cloudy
4:35 PM 43.9 °F 41.3 °F 29.8 °F 58% 29.89 in 10.0 mi NW 4.6 mph - N/A   Overcast
4:55 PM 42.3 °F 40.5 °F 26.1 °F 53% 29.90 in 10.0 mi North 3.5 mph - N/A   Scattered Clouds
5:15 PM 43.7 °F 40.3 °F 25.7 °F 49% 29.90 in 10.0 mi NNW 5.8 mph - N/A   Clear
5:35 PM 42.3 °F 39.4 °F 26.6 °F 54% 29.90 in 10.0 mi NNW 4.6 mph - N/A   Clear
5:55 PM 41.9 °F - 26.6 °F 55% 29.90 in 10.0 mi Calm Calm - N/A   Mostly Cloudy
6:15 PM 41.7 °F - 26.4 °F 55% 29.90 in 10.0 mi Calm Calm - N/A   Overcast
6:35 PM 41.4 °F - 27.7 °F 58% 29.90 in 10.0 mi Calm Calm - N/A   Overcast
6:55 PM 41.0 °F - 28.2 °F 60% 29.91 in 10.0 mi Calm Calm - N/A   Overcast
7:15 PM 40.8 °F - 28.4 °F 61% 29.91 in 10.0 mi Calm Calm - N/A   Overcast
7:35 PM 40.1 °F - 28.2 °F 63% 29.91 in 10.0 mi Calm Calm - N/A   Overcast
7:55 PM 39.6 °F - 28.4 °F 64% 29.91 in 10.0 mi Calm Calm - N/A   Overcast
8:15 PM 39.2 °F 37.0 °F 28.4 °F 65% 29.91 in 10.0 mi NW 3.5 mph - N/A   Overcast
8:35 PM 39.0 °F - 28.6 °F 66% 29.92 in 10.0 mi Calm Calm - N/A   Overcast
8:55 PM 38.8 °F 36.5 °F 28.4 °F 66% 29.92 in 10.0 mi NNW 3.5 mph - N/A   Overcast
9:35 PM 39.2 °F 35.0 °F 28.4 °F 65% 29.92 in 10.0 mi NNW 5.8 mph - N/A   Overcast
10:15 PM 38.5 °F 34.1 °F 28.8 °F 68% 29.92 in 10.0 mi NNW 5.8 mph - N/A   Overcast
10:35 PM 38.3 °F 34.8 °F 28.4 °F 68% 29.92 in 10.0 mi NNW 4.6 mph - N/A   Overcast
10:55 PM 37.9 °F 34.4 °F 29.1 °F 71% 29.92 in 10.0 mi NNW 4.6 mph - N/A   Overcast
11:15 PM 37.9 °F 35.5 °F 28.4 °F 69% 29.92 in 10.0 mi NNW 3.5 mph - N/A   Overcast
11:35 PM 37.8 °F 33.3 °F 28.0 °F 68% 29.92 in 10.0 mi WNW 5.8 mph - N/A   Overcast
11:55 PM 36.7 °F 32.9 °F 29.3 °F 75% 29.92 in 10.0 mi NNW 4.6 mph - N/A   Overcast